{"data":{"norad_id":57176,"epoch":"2026-09-19T22:35:32.126784Z","epoch_age_seconds":62942,"freshness":"FRESH","line1":"1 57176U 23091L   26262.94134406  .00008583  00000+0  28559-3 0  9995","line2":"2 57176  97.4963 327.8221 0012069 123.6090 236.6305 15.31332337178833","mean_motion":15.31332337,"eccentricity":0.0012069,"inclination_deg":97.4963,"raan_deg":327.8221,"arg_perigee_deg":123.609,"mean_anomaly_deg":236.6305,"bstar":0.00028559,"rev_number":17883,"period_min":94.035759920088,"perigee_km":463.56896611986,"apogee_km":480.10343142706,"semimajor_km":6849.9731987735,"source":"CELESTRAK","updated_at":"2026-09-20T09:00:48.035497Z"}}